DW6162 Weather Reports


Display with metric or nautical units.
time (UTC)temp
F
wind
direction
speed
MPH
gust
MPH
rain 1hr
in
rain 24hr
in
rain mn
in
humidity
%
barometer
mb
20260508064608 34 246 0.0 1.0 0.00 0.06 0.00 94 1012.6
20260508063527 36 133 0.0 2.0 0.00 0.06 0.00 92 1011.1
20260508063041 34 105 0.0 1.0 0.00 0.06 0.00 93 1012.6
20260508062248 36 109 0.0 1.0 0.00 0.06 0.00 92 1011.2
20260508061504 36 0 0.0 0.0 0.00 0.06 0.00 92 1011.3
20260508060744 36 0 0.0 0.0 0.00 0.06 0.00 92 1011.3
20260508060053 34 117 0.0 1.0 0.00 0.06 0.00 93 1013.0
20260508055704 36 95 0.0 1.0 0.00 0.06 0.00 92 1011.2
20260508054659 36 82 0.0 1.0 0.00 0.06 0.00 92 1011.1
20260508054509 35 181 0.0 2.0 0.00 0.06 0.00 93 1012.8
20260508053716 36 270 0.0 2.0 0.00 0.06 0.00 92 1011.1
20260508053116 35 248 0.0 1.0 0.00 0.06 0.00 92 1012.8
20260508052938 36 289 1.0 2.0 0.00 0.06 0.00 92 1011.1
20260508051530 36 114 0.0 1.0 0.00 0.06 0.00 92 1012.7
20260508051000 37 44 1.0 3.0 0.00 0.06 0.00 92 1011.0
20260508050459 37 2 1.0 2.0 0.00 0.06 0.00 93 1011.0
20260508050147 36 210 0.0 2.0 0.00 0.06 0.00 92 1012.6
20260508045423 37 166 0.0 1.0 0.00 0.06 0.00 93 1011.0
20260508044531 37 0 0.0 0.0 0.00 0.06 0.00 94 1011.1
20260508044528 36 106 1.0 4.0 0.00 0.06 0.00 92 1012.6
20260508043055 36 315 0.0 5.0 0.00 0.06 0.00 93 1012.5
20260508042650 37 7 1.0 2.0 0.00 0.06 0.00 95 1010.9
20260508041616 37 15 0.0 2.0 0.00 0.06 0.00 96 1010.9
20260508041519 37 105 0.0 2.0 0.00 0.06 0.00 94 1012.4
20260508035813 37 13 0.0 1.0 0.00 0.06 0.06 96 1011.0
20260508034521 36 273 0.0 1.0 0.00 0.06 0.06 96 1012.5
20260508034002 37 0 0.0 0.0 0.00 0.06 0.06 96 1011.0
20260508033317 38 0 0.0 0.0 0.00 0.06 0.06 95 1010.9
20260508032316 38 0 0.0 0.0 0.00 0.06 0.06 95 1011.0
20260508031522 37 169 0.0 1.0 0.00 0.06 0.06 95 1012.5
20260508031303 38 173 0.0 1.0 0.00 0.06 0.06 94 1011.1
20260508030452 39 0 0.0 0.0 0.00 0.06 0.06 94 1011.1
20260508025505 39 0 0.0 0.0 0.01 0.06 0.06 94 1011.1
20260508024622 40 151 0.0 1.0 0.02 0.06 0.06 94 1011.1
20260508024609 38 138 0.0 1.0 0.00 0.06 0.06 94 1012.6
20260508023723 40 67 1.0 2.0 0.03 0.06 0.06 93 1011.1
20260508023107 39 138 0.0 1.0 0.01 0.06 0.06 94 1012.5
20260508021552 39 96 0.0 3.0 0.02 0.06 0.06 93 1012.6
20260508021049 40 337 2.0 3.0 0.06 0.06 0.06 92 1011.1
20260508020154 40 62 1.0 2.0 0.06 0.06 0.06 92 1011.2
20260508020118 39 74 0.0 3.0 0.04 0.06 0.06 93 1012.7
20260508015342 41 318 1.0 3.0 0.05 0.05 0.05 91 1011.1
20260508014512 40 236 3.0 6.0 0.06 0.06 0.06 92 1012.5
20260508013434 42 299 3.0 5.0 0.02 0.02 0.02 87 1010.8
20260508013157 40 323 0.0 2.0 0.05 0.05 0.05 92 1012.3
20260508012533 46 292 3.0 6.0 0.00 0.00 0.00 73 1010.8
20260508011637 47 318 2.0 6.0 0.00 0.00 0.00 66 1010.7
20260508011624 41 280 0.0 6.0 0.04 0.04 0.04 90 1012.3
20260508004911 48 278 1.0 1.0 0.00 0.00 0.00 60 1009.6
20260508004614 46 128 3.0 7.0 0.00 0.00 0.00 68 1010.9
20260508004005 48 314 1.0 2.0 0.00 0.00 0.00 59 1009.2
20260508003431 48 321 2.0 4.0 0.00 0.00 0.00 58 1009.0
20260508002355 48 320 2.0 4.0 0.00 0.00 0.00 58 1008.9
20260508001700 47 316 0.0 3.0 0.00 0.00 0.00 59 1010.3
20260508001555 48 319 2.0 4.0 0.00 0.00 0.00 58 1008.9
20260508000120 48 330 0.0 3.0 0.00 0.00 0.00 60 1010.2
20260507235525 49 316 2.0 4.0 0.00 0.00 0.00 56 1008.7
20260507234646 49 314 2.0 4.0 0.00 0.00 0.00 56 1008.7
20260507234558 48 330 1.0 5.0 0.00 0.00 0.00 57 1010.2
20260507233126 48 323 1.0 5.0 0.00 0.00 0.00 56 1010.1
20260507232807 49 331 3.0 5.0 0.00 0.00 0.00 55 1008.6
20260507231917 50 306 2.0 4.0 0.00 0.00 0.00 54 1008.5
20260507231553 49 322 1.0 7.0 0.00 0.00 0.00 55 1009.9
20260507230131 49 340 2.0 9.0 0.00 0.00 0.00 55 1009.9
20260507225209 50 314 2.0 4.0 0.00 0.00 0.00 51 1008.4
20260507224634 49 226 2.0 4.0 0.00 0.00 0.00 55 1009.9
20260507224559 50 312 3.0 4.0 0.00 0.00 0.00 52 1008.4
20260507223447 51 311 2.0 4.0 0.00 0.00 0.00 53 1008.4
20260507223057 50 323 2.0 5.0 0.00 0.00 0.00 52 1009.9
20260507222509 51 316 2.0 4.0 0.00 0.00 0.00 54 1008.5
20260507221631 51 328 3.0 4.0 0.00 0.00 0.00 52 1008.4
20260507221508 51 348 1.0 4.0 0.00 0.00 0.00 53 1009.9
20260507214918 52 324 3.0 3.0 0.00 0.00 0.00 51 1008.4
20260507214614 51 342 3.0 5.0 0.00 0.00 0.00 51 1009.9
20260507214102 52 330 3.0 4.0 0.00 0.00 0.00 48 1008.3
20260507213109 52 325 2.0 4.0 0.00 0.00 0.00 47 1008.2
20260507213042 51 325 2.0 5.0 0.00 0.00 0.00 51 1009.7
20260507212211 52 315 2.0 5.0 0.00 0.00 0.00 50 1008.2
20260507211604 51 338 2.0 5.0 0.00 0.00 0.00 49 1009.7
20260507211310 52 335 2.0 5.0 0.00 0.00 0.00 49 1008.2
20260507210401 53 324 4.0 7.0 0.00 0.00 0.00 48 1008.2
20260507210127 52 127 2.0 6.0 0.00 0.00 0.00 49 1009.7
20260507204621 52 336 4.0 8.0 0.00 0.00 0.00 48 1009.8
20260507203720 52 352 4.0 6.0 0.00 0.00 0.00 49 1008.4
20260507203037 51 207 1.0 6.0 0.00 0.00 0.00 50 1009.9
20260507202759 52 315 4.0 6.0 0.00 0.00 0.00 50 1008.3
20260507201957 52 342 2.0 4.0 0.00 0.00 0.00 48 1008.5
20260507201602 51 349 3.0 7.0 0.00 0.00 0.00 51 1009.9
20260507201138 52 350 3.0 4.0 0.00 0.00 0.00 50 1008.5
20260507200152 52 322 3.0 5.0 0.00 0.00 0.00 49 1008.6
20260507194618 52 319 2.0 6.0 0.00 0.00 0.00 48 1010.1
20260507193141 52 349 4.0 7.0 0.00 0.00 0.00 48 1010.3
20260507192752 54 335 4.0 8.0 0.00 0.00 0.00 49 1008.8
20260507191602 53 338 3.0 8.0 0.00 0.00 0.00 46 1008.9
20260507191526 53 350 1.0 6.0 0.00 0.00 0.00 47 1010.3
20260507190701 53 339 3.0 7.0 0.00 0.00 0.00 48 1008.9
20260507190007 53 330 5.0 9.0 0.00 0.00 0.00 50 1010.5
20260507185808 53 334 3.0 7.0 0.00 0.00 0.00 49 1008.8
20260507184913 52 326 3.0 5.0 0.00 0.00 0.00 50 1008.9
20260507184628 53 243 2.0 6.0 0.00 0.00 0.00 49 1010.4
20260507183139 52 330 3.0 7.0 0.00 0.00 0.00 47 1010.6
20260507181605 52 347 4.0 8.0 0.00 0.00 0.00 48 1010.6
20260507181300 53 339 4.0 9.0 0.00 0.00 0.00 45 1009.0
20260507180407 53 328 4.0 8.0 0.00 0.00 0.00 48 1009.2
20260507180045 53 313 2.0 8.0 0.00 0.00 0.00 46 1010.7
20260507175504 53 328 3.0 8.0 0.00 0.00 0.00 48 1009.3
20260507174730 52 345 3.0 7.0 0.00 0.00 0.00 50 1009.3
20260507174544 53 308 2.0 8.0 0.00 0.00 0.00 47 1010.9
20260507172838 51 336 3.0 7.0 0.00 0.00 0.00 53 1009.4
20260507171938 50 327 3.0 6.0 0.00 0.00 0.00 51 1009.6
20260507171605 50 326 4.0 10.0 0.00 0.00 0.00 51 1011.4
20260507170951 50 325 3.0 7.0 0.00 0.00 0.00 52 1009.9
20260507170138 51 279 2.0 3.0 0.00 0.01 0.00 51 1009.9
20260507170132 50 326 2.0 7.0 0.00 0.00 0.00 53 1011.5
20260507164641 50 314 2.0 9.0 0.00 0.05 0.00 54 1011.6
20260507163442 50 314 3.0 6.0 0.00 0.01 0.00 53 1010.0
20260507163112 51 319 4.0 10.0 0.00 0.05 0.00 50 1011.7
20260507162532 51 263 1.0 4.0 0.00 0.01 0.00 54 1010.0
20260507161650 51 308 2.0 5.0 0.00 0.01 0.00 54 1010.3
20260507161641 49 304 3.0 8.0 0.00 0.05 0.00 54 1011.9
20260507160032 51 229 1.0 5.0 0.00 0.05 0.00 54 1012.0
20260507155834 50 141 2.0 6.0 0.00 0.05 0.00 57 1010.4
20260507154910 50 141 2.0 6.0 0.00 0.05 0.00 55 1010.4
20260507154511 49 162 2.0 8.0 0.00 0.06 0.00 55 1012.1
20260507154042 49 148 3.0 6.0 0.00 0.06 0.00 55 1010.4
20260507153526 50 43 3.0 14.0 0.00 0.06 0.00 56 1010.5
20260507153046 49 356 3.0 10.0 0.00 0.06 0.00 57 1012.2
20260507152535 50 355 3.0 14.0 0.00 0.06 0.00 57 1010.5
20260507151605 50 312 3.0 7.0 0.00 0.06 0.00 59 1012.3
20260507150413 48 340 3.0 4.0 0.00 0.06 0.00 60 1010.8
20260507145553 48 343 3.0 4.0 0.00 0.06 0.00 62 1010.9
20260507144616 47 3 3.0 6.0 0.00 0.06 0.00 64 1010.8
20260507144603 47 36 1.0 7.0 0.00 0.07 0.00 61 1012.5
20260507143116 47 22 2.0 6.0 0.00 0.07 0.00 61 1012.7
20260507142833 47 41 3.0 4.0 0.00 0.07 0.00 61 1011.2
20260507140949 47 83 3.0 3.0 0.00 0.07 0.00 65 1011.2
20260507140259 46 338 1.0 2.0 0.00 0.07 0.00 71 1011.1
20260507140034 46 322 5.0 11.0 0.00 0.07 0.00 63 1012.7
20260507135603 45 341 1.0 2.0 0.00 0.07 0.00 70 1011.3
20260507134638 46 27 3.0 7.0 0.00 0.11 0.00 63 1012.9
20260507133414 45 350 1.0 1.0 0.00 0.08 0.00 78 1011.5
20260507133133 45 297 0.0 2.0 0.00 0.11 0.00 75 1013.0
20260507132814 44 226 1.0 1.0 0.00 0.09 0.00 77 1011.5
20260507131605 43 159 0.0 3.0 0.00 0.11 0.00 79 1013.0
20260507130900 42 163 0.0 1.0 0.00 0.10 0.00 88 1011.7
20260507130017 42 173 0.0 3.0 0.00 0.11 0.00 79 1013.2
20260507125147 41 163 0.0 1.0 0.00 0.12 0.00 89 1011.7
20260507124549 42 194 1.0 3.0 0.00 0.21 0.00 83 1013.1
20260507123310 40 163 0.0 1.0 0.00 0.13 0.00 90 1011.7
20260507123115 42 172 0.0 1.0 0.00 0.21 0.00 84 1013.1
20260507122347 40 0 0.0 0.0 0.00 0.15 0.00 90 1011.6
20260507121621 41 158 0.0 1.0 0.00 0.21 0.00 89 1013.1
20260507120500 38 161 0.0 1.0 0.00 0.19 0.00 93 1011.5
20260507120151 39 162 0.0 1.0 0.00 0.21 0.00 92 1012.9
20260507115602 38 190 0.0 1.0 0.00 0.22 0.00 94 1011.5
20260507114633 36 0 0.0 0.0 0.00 0.25 0.00 96 1011.4
20260507113122 36 277 0.0 1.0 0.00 0.33 0.00 96 1012.9
20260507112950 34 0 0.0 0.0 0.00 0.27 0.00 97 1011.3
20260507111902 33 0 0.0 0.0 0.00 0.29 0.00 96 1011.3
20260507111510 34 277 0.0 1.0 0.00 0.33 0.00 97 1012.8
20260507111116 33 0 0.0 0.0 0.00 0.31 0.00 96 1011.3
20260507110247 33 0 0.0 0.0 0.00 0.33 0.00 96 1011.2
20260507104606 33 277 0.0 0.0 0.00 0.43 0.00 96 1012.6
20260507104348 34 0 0.0 0.0 0.00 0.37 0.00 94 1011.3
20260507103352 34 0 0.0 0.0 0.00 0.38 0.00 94 1011.1
20260507103050 33 277 0.0 0.0 0.00 0.43 0.00 96 1012.5
20260507102657 35 0 0.0 0.0 0.00 0.39 0.00 93 1011.0
20260507101521 33 277 0.0 0.0 0.00 0.43 0.00 96 1012.3
20260507100006 33 277 0.0 0.0 0.00 0.43 0.00 94 1012.2
20260507095156 36 283 0.0 1.0 0.00 0.46 0.00 93 1010.9
20260507094502 34 277 0.0 0.0 0.00 0.49 0.00 94 1012.2
20260507094143 36 0 0.0 0.0 0.00 0.48 0.00 93 1011.0
20260507093141 36 295 0.0 1.0 0.00 0.49 0.00 93 1011.0
20260507093122 35 277 0.0 1.0 0.00 0.49 0.00 93 1012.2
20260507092226 36 0 0.0 0.0 0.00 0.51 0.00 93 1011.0
20260507091615 35 277 0.0 2.0 0.00 0.49 0.00 93 1012.1
20260507091346 36 0 0.0 0.0 0.00 0.52 0.00 93 1010.9
20260507090101 36 282 0.0 2.0 0.00 0.49 0.00 93 1012.2
20260507085739 36 0 0.0 0.0 0.00 0.53 0.00 92 1011.0
20260507084700 37 0 0.0 0.0 0.00 0.54 0.00 92 1011.1
20260507084549 36 297 0.0 2.0 0.00 0.56 0.00 93 1012.3
20260507083734 37 0 0.0 0.0 0.00 0.56 0.00 92 1011.0
20260507083121 36 276 0.0 1.0 0.00 0.56 0.00 93 1012.3
20260507082911 37 230 0.0 1.0 0.00 0.56 0.00 92 1011.0
20260507082155 37 0 0.0 0.0 0.00 0.57 0.00 92 1011.1
20260507081505 36 276 0.0 1.0 0.00 0.56 0.00 92 1012.2
20260507075537 38 0 0.0 0.0 0.00 0.62 0.00 92 1011.1
20260507074557 36 276 0.0 3.0 0.00 0.61 0.00 92 1012.3
20260507074318 38 0 0.0 0.0 0.00 0.62 0.00 92 1011.2
20260507073043 36 231 0.0 1.0 0.00 0.61 0.00 92 1012.0
20260507072707 39 0 0.0 0.0 0.00 0.62 0.00 91 1011.1
20260507071740 39 313 1.0 2.0 0.00 0.62 0.00 92 1011.1
20260507070914 39 313 1.0 2.0 0.00 0.62 0.00 91 1010.8
20260507070137 37 295 0.0 1.0 0.00 0.61 0.00 92 1011.9
20260507065909 40 327 0.0 2.0 0.00 0.62 0.00 93 1011.0